START_TIME,STEP,MOV.,P11,t_acc.,P23,t_acc.,P27,t_acc.,A4,t_acc.
1989-08-27T00:00:23.710 ,1,0,0.,4.8,0.,4.8,0.,4.8,0.,4.8
1989-08-27T00:00:28.510 ,1,0,0.,4.8,0.,4.8,0.,4.8,1.,4.8
1989-08-27T00:00:33.310 ,1,0,0.,4.8,0.,4.8,0.,4.8,0.,4.8
1989-08-27T00:00:38.110 ,1,0,0.,4.8,0.,4.8,0.,4.8,0.,4.8
1989-08-27T00:00:42.910 ,1,0,0.,4.8,0.,4.8,0.,4.8,0.,4.8
1989-08-27T00:00:47.710 ,2,0,0.,4.8,0.,4.8,0.,4.8,0.,4.8
1989-08-27T00:00:52.510 ,2,0,0.,4.8,0.,4.8,0.,4.8,0.,4.8
1989-08-27T00:00:57.310 ,2,0,0.,4.8,0.,4.8,0.,4.8,0.,4.8
1989-08-27T00:01:02.110 ,2,0,0.,4.8,0.,4.8,0.,4.8,0.,4.8
1989-08-27T00:01:06.910 ,2,0,0.,4.8,0.,4.8,0.,4.8,0.,4.8
1989-08-27T00:01:11.710 ,2,0,0.,4.8,0.,4.8,0.,4.8,0.,4.8
1989-08-27T00:01:16.510 ,2,0,0.,4.8,0.,4.8,0.,4.8,0.,4.8
1989-08-27T00:01:21.310 ,2,0,0.,4.8,0.,4.8,0.,4.8,0.,4.8
1989-08-27T00:01:26.110 ,2,0,0.,4.8,0.,4.8,0.,4.8,0.,4.8
1989-08-27T00:01:30.910 ,2,0,0.,4.8,0.,4.8,0.,4.8,0.,4.8
1989-08-27T00:01:35.710 ,3,0,0.,4.8,0.,4.8,0.,4.8,0.,4.8
1989-08-27T00:01:40.510 ,3,0,0.,4.8,0.,4.8,0.,4.8,0.,4.8
1989-08-27T00:01:45.310 ,3,0,0.,4.8,0.,4.8,0.,4.8,0.,4.8
1989-08-27T00:01:50.110 ,3,0,0.,4.8,0.,4.8,0.,4.8,0.,4.8
1989-08-27T00:01:54.910 ,3,0,0.,4.8,0.,4.8,0.,4.8,0.,4.8
1989-08-27T00:01:59.710 ,3,0,0.,4.8,0.,4.8,0.,4.8,0.,4.8
1989-08-27T00:02:04.510 ,3,0,0.,4.8,0.,4.8,0.,4.8,0.,4.8
1989-08-27T00:02:09.310 ,3,0,0.,4.8,0.,4.8,0.,4.8,0.,4.8
1989-08-27T00:02:14.110 ,3,0,0.,4.8,0.,4.8,0.,4.8,0.,4.8
1989-08-27T00:02:18.910 ,3,0,0.,4.8,0.,4.8,0.,4.8,0.,4.8
1989-08-27T00:02:23.710 ,4,0,0.,4.8,0.,4.8,0.,4.8,0.,4.8
1989-08-27T00:02:28.510 ,4,0,0.,4.8,0.,4.8,0.,4.8,0.,4.8
1989-08-27T00:02:33.310 ,4,0,0.,4.8,0.,4.8,0.,4.8,0.,4.8
1989-08-27T00:02:38.110 ,4,0,0.,4.8,0.,4.8,0.,4.8,0.,4.8
1989-08-27T00:02:42.910 ,4,0,0.,4.8,0.,4.8,0.,4.8,0.,4.8
1989-08-27T00:02:47.710 ,4,0,0.,4.8,0.,4.8,0.,4.8,0.,4.8
1989-08-27T00:02:52.510 ,4,0,0.,4.8,0.,4.8,0.,4.8,0.,4.8
1989-08-27T00:02:57.310 ,4,0,0.,4.8,0.,4.8,0.,4.8,0.,4.8
1989-08-27T00:03:02.110 ,4,0,0.,4.8,0.,4.8,0.,4.8,0.,4.8
1989-08-27T00:03:06.910 ,4,0,0.,4.8,0.,4.8,0.,4.8,0.,4.8
1989-08-27T00:03:11.710 ,5,0,0.,4.8,0.,4.8,0.,4.8,0.,4.8
1989-08-27T00:03:16.510 ,5,0,0.,4.8,0.,4.8,0.,4.8,0.,4.8
1989-08-27T00:03:21.310 ,5,0,0.,4.8,0.,4.8,0.,4.8,0.,4.8
1989-08-27T00:03:26.110 ,5,0,0.,4.8,0.,4.8,0.,4.8,0.,4.8
1989-08-27T00:03:30.910 ,5,0,0.,4.8,0.,4.8,0.,4.8,0.,4.8
1989-08-27T00:03:35.710 ,5,0,0.,4.8,0.,4.8,0.,4.8,0.,4.8
1989-08-27T00:03:40.510 ,5,0,0.,4.8,0.,4.8,0.,4.8,0.,4.8
1989-08-27T00:03:45.310 ,5,0,0.,4.8,0.,4.8,0.,4.8,0.,4.8
1989-08-27T00:03:50.110 ,5,0,0.,4.8,0.,4.8,0.,4.8,0.,4.8
1989-08-27T00:03:54.910 ,5,0,0.,4.8,0.,4.8,0.,4.8,0.,4.8
1989-08-27T00:03:59.710 ,6,0,0.,4.8,0.,4.8,0.,4.8,0.,4.8
1989-08-27T00:04:04.510 ,6,0,0.,4.8,0.,4.8,0.,4.8,0.,4.8
1989-08-27T00:04:09.310 ,6,0,0.,4.8,0.,4.8,0.,4.8,0.,4.8
1989-08-27T00:04:14.110 ,6,0,0.,4.8,0.,4.8,0.,4.8,0.,4.8
1989-08-27T00:04:18.910 ,6,0,0.,4.8,0.,4.8,0.,4.8,0.,4.8
1989-08-27T00:04:23.710 ,6,0,0.,4.8,0.,4.8,0.,4.8,0.,4.8
1989-08-27T00:04:28.510 ,6,0,0.,4.8,0.,4.8,0.,4.8,0.,4.8
1989-08-27T00:04:33.310 ,6,0,0.,4.8,0.,4.8,0.,4.8,0.,4.8
1989-08-27T00:04:38.110 ,6,0,0.,4.8,0.,4.8,0.,4.8,0.,4.8
1989-08-27T00:04:42.910 ,6,0,0.,4.8,0.,4.8,0.,4.8,0.,4.8
1989-08-27T00:04:47.710 ,7,0,0.,4.8,0.,4.8,0.,4.8,0.,4.8
1989-08-27T00:04:52.510 ,7,0,0.,4.8,0.,4.8,0.,4.8,0.,4.8
1989-08-27T00:04:57.310 ,7,0,0.,4.8,0.,4.8,0.,4.8,0.,4.8
1989-08-27T00:05:02.110 ,7,0,0.,4.8,0.,4.8,0.,4.8,0.,4.8
1989-08-27T00:05:06.910 ,7,0,0.,4.8,0.,4.8,0.,4.8,0.,4.8
1989-08-27T00:05:11.710 ,7,0,0.,4.8,0.,4.8,0.,4.8,0.,4.8
1989-08-27T00:05:16.510 ,7,0,0.,4.8,0.,4.8,0.,4.8,0.,4.8
1989-08-27T00:05:21.310 ,7,0,0.,4.8,0.,4.8,0.,4.8,0.,4.8
1989-08-27T00:05:26.110 ,7,0,0.,4.8,0.,4.8,0.,4.8,0.,4.8
1989-08-27T00:05:30.910 ,7,0,0.,4.8,0.,4.8,0.,4.8,0.,4.8
1989-08-27T00:05:35.710 ,7,0,0.,4.8,0.,4.8,0.,4.8,0.,4.8
1989-08-27T00:05:40.510 ,7,0,0.,4.8,0.,4.8,0.,4.8,0.,4.8
1989-08-27T00:05:45.310 ,7,0,0.,4.8,0.,4.8,0.,4.8,0.,4.8
1989-08-27T00:05:50.110 ,7,0,0.,4.8,0.,4.8,0.,4.8,0.,4.8
1989-08-27T00:05:54.910 ,7,0,0.,4.8,0.,4.8,0.,4.8,0.,4.8
1989-08-27T00:05:59.710 ,7,0,0.,4.8,0.,4.8,0.,4.8,0.,4.8
1989-08-27T00:06:04.510 ,7,0,0.,4.8,0.,4.8,0.,4.8,0.,4.8
1989-08-27T00:06:09.310 ,7,0,0.,4.8,0.,4.8,0.,4.8,0.,4.8
1989-08-27T00:06:14.110 ,7,0,0.,4.8,0.,4.8,0.,4.8,0.,4.8
1989-08-27T00:06:18.910 ,7,0,0.,4.8,0.,4.8,0.,4.8,1.,4.8
1989-08-27T00:06:23.710 ,6,0,0.,4.8,0.,4.8,0.,4.8,0.,4.8
1989-08-27T00:06:28.510 ,6,0,0.,4.8,0.,4.8,0.,4.8,0.,4.8
1989-08-27T00:06:33.310 ,6,0,0.,4.8,0.,4.8,0.,4.8,0.,4.8
1989-08-27T00:06:38.110 ,6,0,0.,4.8,0.,4.8,0.,4.8,0.,4.8
1989-08-27T00:06:42.910 ,6,0,0.,4.8,0.,4.8,0.,4.8,0.,4.8
1989-08-27T00:06:47.710 ,6,0,0.,4.8,0.,4.8,0.,4.8,0.,4.8
1989-08-27T00:06:52.510 ,6,0,0.,4.8,0.,4.8,0.,4.8,0.,4.8
1989-08-27T00:06:57.310 ,6,0,0.,4.8,0.,4.8,0.,4.8,0.,4.8
1989-08-27T00:07:02.110 ,6,0,0.,4.8,0.,4.8,0.,4.8,0.,4.8
1989-08-27T00:07:06.910 ,6,0,0.,4.8,0.,4.8,0.,4.8,0.,4.8
1989-08-27T00:07:11.710 ,5,0,0.,4.8,0.,4.8,0.,4.8,0.,4.8
1989-08-27T00:07:16.510 ,5,0,0.,4.8,0.,4.8,0.,4.8,0.,4.8
1989-08-27T00:07:21.310 ,5,0,0.,4.8,0.,4.8,0.,4.8,0.,4.8
1989-08-27T00:07:26.110 ,5,0,0.,4.8,0.,4.8,0.,4.8,0.,4.8
1989-08-27T00:07:30.910 ,5,0,0.,4.8,0.,4.8,0.,4.8,0.,4.8
1989-08-27T00:07:35.710 ,5,0,0.,4.8,0.,4.8,0.,4.8,0.,4.8
1989-08-27T00:07:40.510 ,5,0,0.,4.8,0.,4.8,0.,4.8,0.,4.8
1989-08-27T00:07:45.310 ,5,0,0.,4.8,0.,4.8,0.,4.8,0.,4.8
1989-08-27T00:07:50.110 ,5,0,0.,4.8,0.,4.8,0.,4.8,0.,4.8
1989-08-27T00:07:54.910 ,5,0,0.,4.8,0.,4.8,0.,4.8,0.,4.8
1989-08-27T00:07:59.710 ,4,0,0.,4.8,0.,4.8,0.,4.8,0.,4.8
1989-08-27T00:08:04.510 ,4,0,0.,4.8,0.,4.8,0.,4.8,0.,4.8
1989-08-27T00:08:09.310 ,4,0,0.,4.8,0.,4.8,0.,4.8,0.,4.8
1989-08-27T00:08:14.110 ,4,0,0.,4.8,0.,4.8,0.,4.8,0.,4.8
1989-08-27T00:08:18.910 ,4,0,0.,4.8,0.,4.8,0.,4.8,0.,4.8
1989-08-27T00:08:23.710 ,4,0,0.,4.8,0.,4.8,0.,4.8,0.,4.8
1989-08-27T00:08:28.510 ,4,0,0.,4.8,0.,4.8,0.,4.8,0.,4.8
1989-08-27T00:08:33.310 ,4,0,0.,4.8,0.,4.8,0.,4.8,0.,4.8
1989-08-27T00:08:38.110 ,4,0,0.,4.8,0.,4.8,0.,4.8,0.,4.8
1989-08-27T00:08:42.910 ,4,0,0.,4.8,0.,4.8,0.,4.8,0.,4.8
1989-08-27T00:08:47.710 ,3,0,0.,4.8,0.,4.8,0.,4.8,0.,4.8
1989-08-27T00:08:52.510 ,3,0,0.,4.8,0.,4.8,0.,4.8,0.,4.8
1989-08-27T00:08:57.310 ,3,0,0.,4.8,0.,4.8,0.,4.8,0.,4.8
1989-08-27T00:09:02.110 ,3,0,0.,4.8,0.,4.8,0.,4.8,0.,4.8
1989-08-27T00:09:06.910 ,3,0,0.,4.8,0.,4.8,0.,4.8,0.,4.8
1989-08-27T00:09:11.710 ,3,0,0.,4.8,0.,4.8,0.,4.8,0.,4.8
1989-08-27T00:09:16.510 ,3,0,0.,4.8,0.,4.8,0.,4.8,0.,4.8
1989-08-27T00:09:21.310 ,3,0,0.,4.8,0.,4.8,0.,4.8,0.,4.8
1989-08-27T00:09:26.110 ,3,0,0.,4.8,0.,4.8,0.,4.8,0.,4.8
1989-08-27T00:09:30.910 ,3,0,0.,4.8,0.,4.8,0.,4.8,0.,4.8
1989-08-27T00:09:35.710 ,2,0,0.,4.8,0.,4.8,0.,4.8,0.,4.8
1989-08-27T00:09:40.510 ,2,0,0.,4.8,0.,4.8,0.,4.8,0.,4.8
1989-08-27T00:09:45.310 ,2,0,0.,4.8,0.,4.8,0.,4.8,0.,4.8
1989-08-27T00:09:50.110 ,2,0,0.,4.8,0.,4.8,0.,4.8,0.,4.8
1989-08-27T00:09:54.910 ,2,0,0.,4.8,0.,4.8,0.,4.8,0.,4.8
1989-08-27T00:09:59.710 ,2,0,0.,4.8,0.,4.8,0.,4.8,0.,4.8
1989-08-27T00:10:04.510 ,2,0,0.,4.8,0.,4.8,0.,4.8,0.,4.8
1989-08-27T00:10:09.310 ,2,0,0.,4.8,0.,4.8,0.,4.8,0.,4.8
1989-08-27T00:10:14.110 ,2,0,0.,4.8,0.,4.8,0.,4.8,0.,4.8
1989-08-27T00:10:18.910 ,2,0,0.,4.8,0.,4.8,0.,4.8,0.,4.8
1989-08-27T00:10:23.710 ,1,0,0.,4.8,0.,4.8,0.,4.8,0.,4.8
1989-08-27T00:10:28.510 ,1,0,0.,4.8,0.,4.8,0.,4.8,0.,4.8
1989-08-27T00:10:33.310 ,1,0,0.,4.8,0.,4.8,0.,4.8,0.,4.8
1989-08-27T00:10:38.110 ,1,0,0.,4.8,0.,4.8,0.,4.8,0.,4.8
1989-08-27T00:10:42.910 ,1,0,0.,4.8,0.,4.8,0.,4.8,0.,4.8
1989-08-27T00:10:47.710 ,1,0,0.,4.8,0.,4.8,0.,4.8,0.,4.8
1989-08-27T00:10:52.510 ,1,0,0.,4.8,0.,4.8,0.,4.8,0.,4.8
1989-08-27T00:10:57.310 ,1,0,0.,4.8,0.,4.8,0.,4.8,0.,4.8
1989-08-27T00:11:02.110 ,1,0,0.,4.8,0.,4.8,0.,4.8,0.,4.8
1989-08-27T00:11:06.910 ,1,0,0.,4.8,0.,4.8,0.,4.8,0.,4.8
1989-08-27T00:11:11.710 ,0,0,0.,4.8,0.,4.8,0.,4.8,0.,4.8
1989-08-27T00:11:16.510 ,0,0,0.,4.8,0.,4.8,0.,4.8,0.,4.8
1989-08-27T00:11:21.310 ,0,0,0.,4.8,0.,4.8,0.,4.8,0.,4.8
1989-08-27T00:11:26.110 ,0,0,0.,4.8,0.,4.8,0.,4.8,0.,4.8
1989-08-27T00:11:30.910 ,0,0,0.,4.8,0.,4.8,0.,4.8,0.,4.8
1989-08-27T00:11:35.710 ,0,0,0.,4.8,0.,4.8,0.,4.8,0.,4.8
1989-08-27T00:11:40.510 ,0,0,0.,4.8,0.,4.8,0.,4.8,0.,4.8
1989-08-27T00:11:45.310 ,0,0,0.,4.8,0.,4.8,0.,4.8,0.,4.8
1989-08-27T00:11:50.110 ,0,0,0.,4.8,0.,4.8,0.,4.8,0.,4.8
1989-08-27T00:11:54.910 ,0,0,0.,4.8,0.,4.8,0.,4.8,0.,4.8
1989-08-27T00:11:59.700 ,0,0,0.,4.8,0.,4.8,0.,4.8,0.,4.8
1989-08-27T00:12:04.510 ,0,0,0.,4.8,0.,4.8,0.,4.8,0.,4.8
1989-08-27T00:12:09.300 ,0,0,0.,4.8,0.,4.8,0.,4.8,0.,4.8
1989-08-27T00:12:14.100 ,0,0,0.,4.8,0.,4.8,0.,4.8,0.,4.8
1989-08-27T00:12:18.900 ,0,0,0.,4.8,0.,4.8,0.,4.8,0.,4.8
1989-08-27T00:12:23.700 ,0,0,0.,4.8,0.,4.8,0.,4.8,0.,4.8
1989-08-27T00:12:28.510 ,0,0,0.,4.8,0.,4.8,0.,4.8,0.,4.8
1989-08-27T00:12:33.300 ,0,0,0.,4.8,0.,4.8,0.,4.8,0.,4.8
1989-08-27T00:12:38.100 ,0,0,0.,4.8,0.,4.8,0.,4.8,0.,4.8
1989-08-27T00:12:42.900 ,0,0,0.,4.8,0.,4.8,0.,4.8,0.,4.8
1989-08-27T00:12:47.700 ,1,0,0.,4.8,0.,4.8,0.,4.8,0.,4.8
1989-08-27T00:12:52.510 ,1,0,0.,4.8,0.,4.8,0.,4.8,0.,4.8
1989-08-27T00:12:57.300 ,1,0,0.,4.8,0.,4.8,0.,4.8,0.,4.8
1989-08-27T00:13:02.100 ,1,0,0.,4.8,0.,4.8,0.,4.8,0.,4.8
1989-08-27T00:13:06.900 ,1,0,0.,4.8,0.,4.8,0.,4.8,0.,4.8
1989-08-27T00:13:11.700 ,1,0,0.,4.8,0.,4.8,0.,4.8,0.,4.8
1989-08-27T00:13:16.510 ,1,0,0.,4.8,0.,4.8,0.,4.8,0.,4.8
1989-08-27T00:13:21.300 ,1,0,0.,4.8,0.,4.8,0.,4.8,0.,4.8
1989-08-27T00:13:26.100 ,1,0,0.,4.8,0.,4.8,0.,4.8,0.,4.8
1989-08-27T00:13:30.900 ,1,0,0.,4.8,0.,4.8,0.,4.8,0.,4.8
1989-08-27T00:13:35.700 ,2,0,0.,4.8,0.,4.8,0.,4.8,0.,4.8
1989-08-27T00:13:40.510 ,2,0,0.,4.8,0.,4.8,0.,4.8,0.,4.8
1989-08-27T00:13:45.300 ,2,0,0.,4.8,0.,4.8,0.,4.8,0.,4.8
1989-08-27T00:13:50.100 ,2,0,0.,4.8,0.,4.8,0.,4.8,0.,4.8
1989-08-27T00:13:54.900 ,2,0,0.,4.8,0.,4.8,0.,4.8,0.,4.8
1989-08-27T00:13:59.700 ,2,0,0.,4.8,0.,4.8,0.,4.8,0.,4.8
1989-08-27T00:14:04.510 ,2,0,0.,4.8,0.,4.8,0.,4.8,0.,4.8
1989-08-27T00:14:09.300 ,2,0,0.,4.8,0.,4.8,0.,4.8,0.,4.8
1989-08-27T00:14:14.100 ,2,0,0.,4.8,0.,4.8,0.,4.8,0.,4.8
1989-08-27T00:14:18.900 ,2,0,0.,4.8,0.,4.8,0.,4.8,0.,4.8
1989-08-27T00:14:23.700 ,3,0,0.,4.8,0.,4.8,0.,4.8,0.,4.8
1989-08-27T00:14:28.510 ,3,0,0.,4.8,0.,4.8,0.,4.8,0.,4.8
1989-08-27T00:14:33.300 ,3,0,0.,4.8,0.,4.8,0.,4.8,0.,4.8
1989-08-27T00:14:38.100 ,3,0,0.,4.8,0.,4.8,0.,4.8,0.,4.8
1989-08-27T00:14:42.900 ,3,0,0.,4.8,0.,4.8,0.,4.8,0.,4.8
1989-08-27T00:14:47.700 ,3,0,0.,4.8,0.,4.8,0.,4.8,0.,4.8
1989-08-27T00:14:52.510 ,3,0,0.,4.8,0.,4.8,0.,4.8,0.,4.8
1989-08-27T00:14:57.300 ,3,0,0.,4.8,0.,4.8,0.,4.8,0.,4.8
1989-08-27T00:15:02.100 ,3,0,0.,4.8,0.,4.8,0.,4.8,0.,4.8
1989-08-27T00:15:06.900 ,3,0,0.,4.8,0.,4.8,0.,4.8,0.,4.8
1989-08-27T00:15:11.700 ,4,0,0.,4.8,0.,4.8,0.,4.8,0.,4.8
1989-08-27T00:15:16.510 ,4,0,0.,4.8,0.,4.8,0.,4.8,0.,4.8
1989-08-27T00:15:21.300 ,4,0,0.,4.8,0.,4.8,0.,4.8,0.,4.8
1989-08-27T00:15:26.100 ,4,0,0.,4.8,0.,4.8,0.,4.8,0.,4.8
1989-08-27T00:15:30.900 ,4,0,0.,4.8,0.,4.8,0.,4.8,0.,4.8
1989-08-27T00:15:35.700 ,4,0,0.,4.8,0.,4.8,0.,4.8,0.,4.8
1989-08-27T00:15:40.510 ,4,0,0.,4.8,0.,4.8,0.,4.8,0.,4.8
1989-08-27T00:15:45.300 ,4,0,0.,4.8,0.,4.8,0.,4.8,0.,4.8
1989-08-27T00:15:50.100 ,4,0,0.,4.8,0.,4.8,0.,4.8,0.,4.8
1989-08-27T00:15:54.900 ,4,0,0.,4.8,0.,4.8,0.,4.8,0.,4.8
1989-08-27T00:15:59.700 ,5,0,0.,4.8,0.,4.8,0.,4.8,0.,4.8
1989-08-27T00:16:04.510 ,5,0,0.,4.8,0.,4.8,0.,4.8,0.,4.8
1989-08-27T00:16:09.300 ,5,0,0.,4.8,0.,4.8,0.,4.8,0.,4.8
1989-08-27T00:16:14.100 ,5,0,0.,4.8,0.,4.8,0.,4.8,0.,4.8
1989-08-27T00:16:18.900 ,5,0,0.,4.8,0.,4.8,0.,4.8,0.,4.8
1989-08-27T00:16:23.700 ,5,0,0.,4.8,0.,4.8,0.,4.8,0.,4.8
1989-08-27T00:16:28.510 ,5,0,0.,4.8,0.,4.8,0.,4.8,0.,4.8
1989-08-27T00:16:33.300 ,5,0,0.,4.8,0.,4.8,0.,4.8,0.,4.8
1989-08-27T00:16:38.100 ,5,0,0.,4.8,0.,4.8,0.,4.8,0.,4.8
1989-08-27T00:16:42.900 ,5,0,0.,4.8,0.,4.8,0.,4.8,0.,4.8
1989-08-27T00:16:47.700 ,6,0,0.,4.8,0.,4.8,0.,4.8,0.,4.8
1989-08-27T00:16:52.510 ,6,0,0.,4.8,0.,4.8,0.,4.8,0.,4.8
1989-08-27T00:16:57.300 ,6,0,0.,4.8,0.,4.8,0.,4.8,0.,4.8
1989-08-27T00:17:02.100 ,6,0,0.,4.8,0.,4.8,0.,4.8,0.,4.8
1989-08-27T00:17:06.910 ,6,0,0.,4.8,0.,4.8,0.,4.8,0.,4.8
1989-08-27T00:17:11.700 ,6,0,0.,4.8,0.,4.8,0.,4.8,0.,4.8
1989-08-27T00:17:16.510 ,6,0,0.,4.8,0.,4.8,0.,4.8,0.,4.8
1989-08-27T00:17:21.300 ,6,0,0.,4.8,0.,4.8,0.,4.8,0.,4.8
1989-08-27T00:17:26.100 ,6,0,0.,4.8,0.,4.8,0.,4.8,0.,4.8
1989-08-27T00:17:30.910 ,6,0,0.,4.8,0.,4.8,0.,4.8,0.,4.8
1989-08-27T00:17:35.700 ,7,0,0.,4.8,0.,4.8,0.,4.8,0.,4.8
1989-08-27T00:17:40.510 ,7,0,0.,4.8,0.,4.8,0.,4.8,0.,4.8
1989-08-27T00:17:45.300 ,7,0,0.,4.8,0.,4.8,0.,4.8,0.,4.8
1989-08-27T00:17:50.100 ,7,0,0.,4.8,0.,4.8,0.,4.8,0.,4.8
1989-08-27T00:17:54.910 ,7,0,0.,4.8,0.,4.8,0.,4.8,0.,4.8
1989-08-27T00:17:59.700 ,7,0,0.,4.8,0.,4.8,0.,4.8,0.,4.8
1989-08-27T00:18:04.510 ,7,0,0.,4.8,0.,4.8,0.,4.8,0.,4.8
1989-08-27T00:18:09.300 ,7,0,0.,4.8,0.,4.8,0.,4.8,0.,4.8
1989-08-27T00:18:14.100 ,7,0,0.,4.8,0.,4.8,0.,4.8,0.,4.8
1989-08-27T00:18:18.910 ,7,0,0.,4.8,0.,4.8,0.,4.8,0.,4.8
1989-08-27T00:18:23.700 ,7,0,0.,4.8,0.,4.8,0.,4.8,0.,4.8
1989-08-27T00:18:28.510 ,7,0,0.,4.8,0.,4.8,0.,4.8,0.,4.8
1989-08-27T00:18:33.300 ,7,0,0.,4.8,0.,4.8,0.,4.8,0.,4.8
1989-08-27T00:18:38.100 ,7,0,0.,4.8,0.,4.8,0.,4.8,0.,4.8
1989-08-27T00:18:42.910 ,7,0,0.,4.8,0.,4.8,0.,4.8,0.,4.8
1989-08-27T00:18:47.700 ,7,0,0.,4.8,0.,4.8,0.,4.8,0.,4.8
1989-08-27T00:18:52.510 ,7,0,0.,4.8,0.,4.8,0.,4.8,0.,4.8
1989-08-27T00:18:57.300 ,7,0,0.,4.8,0.,4.8,0.,4.8,0.,4.8
1989-08-27T00:19:02.100 ,7,0,0.,4.8,0.,4.8,0.,4.8,0.,4.8
1989-08-27T00:19:06.910 ,7,0,0.,4.8,0.,4.8,0.,4.8,0.,4.8
1989-08-27T00:19:11.700 ,6,0,0.,4.8,0.,4.8,0.,4.8,0.,4.8
1989-08-27T00:19:16.510 ,6,0,0.,4.8,0.,4.8,0.,4.8,0.,4.8
1989-08-27T00:19:21.300 ,6,0,0.,4.8,0.,4.8,0.,4.8,0.,4.8
1989-08-27T00:19:26.100 ,6,0,0.,4.8,0.,4.8,0.,4.8,0.,4.8
1989-08-27T00:19:30.910 ,6,0,0.,4.8,0.,4.8,0.,4.8,0.,4.8
1989-08-27T00:19:35.700 ,6,0,0.,4.8,0.,4.8,0.,4.8,0.,4.8
1989-08-27T00:19:40.510 ,6,0,0.,4.8,0.,4.8,0.,4.8,0.,4.8
1989-08-27T00:19:45.300 ,6,0,0.,4.8,0.,4.8,0.,4.8,0.,4.8
1989-08-27T00:19:50.100 ,6,0,0.,4.8,0.,4.8,0.,4.8,0.,4.8
1989-08-27T00:19:54.910 ,6,0,0.,4.8,0.,4.8,0.,4.8,0.,4.8
1989-08-27T00:19:59.700 ,5,0,0.,4.8,0.,4.8,0.,4.8,0.,4.8
1989-08-27T00:20:04.510 ,5,0,0.,4.8,0.,4.8,0.,4.8,0.,4.8
1989-08-27T00:20:09.300 ,5,0,0.,4.8,0.,4.8,0.,4.8,0.,4.8
1989-08-27T00:20:14.100 ,5,0,0.,4.8,0.,4.8,0.,4.8,0.,4.8
1989-08-27T00:20:18.910 ,5,0,0.,4.8,0.,4.8,0.,4.8,0.,4.8
1989-08-27T00:20:23.700 ,5,0,0.,4.8,0.,4.8,0.,4.8,0.,4.8
1989-08-27T00:20:28.510 ,5,0,0.,4.8,0.,4.8,0.,4.8,0.,4.8
1989-08-27T00:20:33.300 ,5,0,0.,4.8,0.,4.8,0.,4.8,0.,4.8
1989-08-27T00:20:38.100 ,5,0,0.,4.8,0.,4.8,0.,4.8,0.,4.8
1989-08-27T00:20:42.910 ,5,0,0.,4.8,0.,4.8,0.,4.8,0.,4.8
1989-08-27T00:20:47.700 ,4,0,0.,4.8,0.,4.8,0.,4.8,0.,4.8
1989-08-27T00:20:52.510 ,4,0,0.,4.8,0.,4.8,0.,4.8,0.,4.8
1989-08-27T00:20:57.300 ,4,0,0.,4.8,0.,4.8,0.,4.8,0.,4.8
1989-08-27T00:21:02.100 ,4,0,0.,4.8,0.,4.8,0.,4.8,0.,4.8
1989-08-27T00:21:06.910 ,4,0,0.,4.8,0.,4.8,0.,4.8,0.,4.8
1989-08-27T00:21:11.700 ,4,0,0.,4.8,0.,4.8,0.,4.8,0.,4.8
1989-08-27T00:21:16.510 ,4,0,0.,4.8,0.,4.8,0.,4.8,0.,4.8
1989-08-27T00:21:21.300 ,4,0,0.,4.8,0.,4.8,0.,4.8,0.,4.8
1989-08-27T00:21:26.100 ,4,0,0.,4.8,0.,4.8,0.,4.8,0.,4.8
1989-08-27T00:21:30.910 ,4,0,0.,4.8,0.,4.8,0.,4.8,0.,4.8
1989-08-27T00:21:35.700 ,3,0,0.,4.8,0.,4.8,0.,4.8,0.,4.8
1989-08-27T00:21:40.510 ,3,0,0.,4.8,0.,4.8,0.,4.8,0.,4.8
1989-08-27T00:21:45.300 ,3,0,0.,4.8,0.,4.8,0.,4.8,0.,4.8
1989-08-27T00:21:50.100 ,3,0,0.,4.8,0.,4.8,0.,4.8,0.,4.8
1989-08-27T00:21:54.910 ,3,0,0.,4.8,0.,4.8,0.,4.8,0.,4.8
1989-08-27T00:21:59.700 ,3,0,0.,4.8,0.,4.8,0.,4.8,0.,4.8
1989-08-27T00:22:04.510 ,3,0,0.,4.8,0.,4.8,0.,4.8,0.,4.8
1989-08-27T00:22:09.300 ,3,0,0.,4.8,0.,4.8,0.,4.8,0.,4.8
1989-08-27T00:22:14.100 ,3,0,0.,4.8,0.,4.8,0.,4.8,0.,4.8
1989-08-27T00:22:18.910 ,3,0,0.,4.8,0.,4.8,0.,4.8,0.,4.8
1989-08-27T00:22:23.700 ,2,0,0.,4.8,0.,4.8,0.,4.8,0.,4.8
1989-08-27T00:22:28.510 ,2,0,0.,4.8,0.,4.8,0.,4.8,0.,4.8
1989-08-27T00:22:33.300 ,2,0,0.,4.8,0.,4.8,0.,4.8,0.,4.8
1989-08-27T00:22:38.100 ,2,0,0.,4.8,0.,4.8,0.,4.8,0.,4.8
1989-08-27T00:22:42.910 ,2,0,0.,4.8,0.,4.8,0.,4.8,0.,4.8
1989-08-27T00:22:47.700 ,2,0,0.,4.8,0.,4.8,0.,4.8,0.,4.8
1989-08-27T00:22:52.510 ,2,0,0.,4.8,0.,4.8,0.,4.8,0.,4.8
1989-08-27T00:22:57.300 ,2,0,0.,4.8,0.,4.8,0.,4.8,0.,4.8
1989-08-27T00:23:02.100 ,2,0,0.,4.8,0.,4.8,0.,4.8,0.,4.8
1989-08-27T00:23:06.910 ,2,0,0.,4.8,0.,4.8,0.,4.8,0.,4.8
1989-08-27T00:23:11.700 ,1,0,0.,4.8,0.,4.8,0.,4.8,0.,4.8
1989-08-27T00:23:16.510 ,1,0,0.,4.8,0.,4.8,0.,4.8,0.,4.8
1989-08-27T00:23:21.300 ,1,0,0.,4.8,0.,4.8,0.,4.8,0.,4.8
1989-08-27T00:23:26.100 ,1,0,0.,4.8,0.,4.8,0.,4.8,0.,4.8
1989-08-27T00:23:30.910 ,1,0,0.,4.8,0.,4.8,0.,4.8,0.,4.8
1989-08-27T00:23:35.700 ,1,0,0.,4.8,0.,4.8,0.,4.8,0.,4.8
1989-08-27T00:23:40.510 ,1,0,0.,4.8,0.,4.8,0.,4.8,0.,4.8
1989-08-27T00:23:45.300 ,1,0,0.,4.8,0.,4.8,0.,4.8,0.,4.8
1989-08-27T00:23:50.100 ,1,0,0.,4.8,0.,4.8,0.,4.8,0.,4.8
1989-08-27T00:23:54.910 ,1,0,0.,4.8,0.,4.8,0.,4.8,0.,4.8
1989-08-27T00:23:59.700 ,0,0,0.,4.8,0.,4.8,0.,4.8,0.,4.8
1989-08-27T00:24:04.510 ,0,0,0.,4.8,0.,4.8,0.,4.8,0.,4.8
1989-08-27T00:24:09.300 ,0,0,0.,4.8,0.,4.8,0.,4.8,0.,4.8
1989-08-27T00:24:14.100 ,0,0,0.,4.8,0.,4.8,0.,4.8,0.,4.8
1989-08-27T00:24:18.910 ,0,0,0.,4.8,0.,4.8,0.,4.8,0.,4.8
1989-08-27T00:24:23.700 ,0,0,0.,4.8,0.,4.8,0.,4.8,0.,4.8
1989-08-27T00:24:28.510 ,0,0,0.,4.8,0.,4.8,0.,4.8,0.,4.8
1989-08-27T00:24:33.300 ,0,0,0.,4.8,0.,4.8,0.,4.8,0.,4.8
1989-08-27T00:24:38.100 ,0,0,0.,4.8,0.,4.8,0.,4.8,0.,4.8
1989-08-27T00:24:42.910 ,0,0,0.,4.8,0.,4.8,0.,4.8,0.,4.8
1989-08-27T00:24:47.700 ,0,0,0.,4.8,0.,4.8,0.,4.8,0.,4.8
1989-08-27T00:24:52.500 ,0,0,0.,4.8,0.,4.8,0.,4.8,0.,4.8
1989-08-27T00:24:57.300 ,0,0,0.,4.8,0.,4.8,0.,4.8,0.,4.8
1989-08-27T00:25:02.100 ,0,0,0.,4.8,0.,4.8,0.,4.8,0.,4.8
1989-08-27T00:25:06.900 ,0,0,0.,4.8,0.,4.8,0.,4.8,1.,4.8
1989-08-27T00:25:11.700 ,0,0,0.,4.8,0.,4.8,0.,4.8,0.,4.8
1989-08-27T00:25:16.500 ,0,0,0.,4.8,0.,4.8,0.,4.8,0.,4.8
1989-08-27T00:25:21.300 ,0,0,0.,4.8,0.,4.8,0.,4.8,0.,4.8
1989-08-27T00:25:26.100 ,0,0,0.,4.8,0.,4.8,0.,4.8,0.,4.8
1989-08-27T00:25:30.900 ,0,0,0.,4.8,0.,4.8,0.,4.8,0.,4.8
1989-08-27T00:25:35.700 ,1,0,0.,4.8,0.,4.8,0.,4.8,0.,4.8
1989-08-27T00:25:40.500 ,1,0,0.,4.8,0.,4.8,0.,4.8,0.,4.8
1989-08-27T00:25:45.300 ,1,0,0.,4.8,0.,4.8,0.,4.8,0.,4.8
1989-08-27T00:25:50.100 ,1,0,0.,4.8,0.,4.8,0.,4.8,0.,4.8
1989-08-27T00:25:54.900 ,1,0,0.,4.8,0.,4.8,0.,4.8,0.,4.8
1989-08-27T00:25:59.700 ,1,0,0.,4.8,0.,4.8,0.,4.8,0.,4.8
1989-08-27T00:26:04.500 ,1,0,0.,4.8,0.,4.8,0.,4.8,0.,4.8
1989-08-27T00:26:09.300 ,1,0,0.,4.8,0.,4.8,0.,4.8,0.,4.8
1989-08-27T00:26:14.100 ,1,0,0.,4.8,0.,4.8,0.,4.8,0.,4.8
1989-08-27T00:26:18.900 ,1,0,0.,4.8,0.,4.8,0.,4.8,0.,4.8
1989-08-27T00:26:23.700 ,2,0,0.,4.8,0.,4.8,0.,4.8,0.,4.8
1989-08-27T00:26:28.500 ,2,0,0.,4.8,0.,4.8,0.,4.8,0.,4.8
1989-08-27T00:26:33.300 ,2,0,0.,4.8,0.,4.8,0.,4.8,0.,4.8
1989-08-27T00:26:38.100 ,2,0,0.,4.8,0.,4.8,0.,4.8,0.,4.8
1989-08-27T00:26:42.900 ,2,0,0.,4.8,0.,4.8,0.,4.8,0.,4.8
1989-08-27T00:26:47.700 ,2,0,0.,4.8,0.,4.8,0.,4.8,0.,4.8
1989-08-27T00:26:52.500 ,2,0,0.,4.8,0.,4.8,0.,4.8,0.,4.8
1989-08-27T00:26:57.300 ,2,0,0.,4.8,0.,4.8,0.,4.8,0.,4.8
1989-08-27T00:27:02.100 ,2,0,0.,4.8,0.,4.8,0.,4.8,0.,4.8
1989-08-27T00:27:06.900 ,2,0,0.,4.8,0.,4.8,0.,4.8,0.,4.8
1989-08-27T00:27:11.700 ,3,0,0.,4.8,0.,4.8,0.,4.8,0.,4.8
1989-08-27T00:27:16.500 ,3,0,0.,4.8,0.,4.8,0.,4.8,0.,4.8
1989-08-27T00:27:21.300 ,3,0,0.,4.8,0.,4.8,0.,4.8,0.,4.8
1989-08-27T00:27:26.100 ,3,0,0.,4.8,0.,4.8,0.,4.8,0.,4.8
1989-08-27T00:27:30.900 ,3,0,0.,4.8,0.,4.8,0.,4.8,0.,4.8
1989-08-27T00:27:35.700 ,3,0,0.,4.8,0.,4.8,0.,4.8,0.,4.8
1989-08-27T00:27:40.500 ,3,0,0.,4.8,0.,4.8,0.,4.8,0.,4.8
1989-08-27T00:27:45.300 ,3,0,0.,4.8,0.,4.8,0.,4.8,0.,4.8
1989-08-27T00:27:50.100 ,3,0,0.,4.8,0.,4.8,0.,4.8,0.,4.8
1989-08-27T00:27:54.900 ,3,0,0.,4.8,0.,4.8,0.,4.8,0.,4.8
1989-08-27T00:27:59.700 ,4,0,0.,4.8,0.,4.8,0.,4.8,0.,4.8
1989-08-27T00:28:04.500 ,4,0,0.,4.8,0.,4.8,0.,4.8,0.,4.8
1989-08-27T00:28:09.300 ,4,0,0.,4.8,0.,4.8,0.,4.8,0.,4.8
1989-08-27T00:28:14.100 ,4,0,0.,4.8,0.,4.8,0.,4.8,0.,4.8
1989-08-27T00:28:18.900 ,4,0,0.,4.8,0.,4.8,0.,4.8,0.,4.8
1989-08-27T00:28:23.700 ,4,0,0.,4.8,0.,4.8,0.,4.8,0.,4.8
1989-08-27T00:28:28.500 ,4,0,0.,4.8,0.,4.8,0.,4.8,0.,4.8
1989-08-27T00:28:33.300 ,4,0,0.,4.8,0.,4.8,0.,4.8,0.,4.8
1989-08-27T00:28:38.100 ,4,0,0.,4.8,0.,4.8,0.,4.8,0.,4.8
1989-08-27T00:28:42.900 ,4,0,0.,4.8,0.,4.8,0.,4.8,0.,4.8
1989-08-27T00:28:47.700 ,5,0,0.,4.8,0.,4.8,0.,4.8,0.,4.8
1989-08-27T00:28:52.500 ,5,0,0.,4.8,0.,4.8,0.,4.8,0.,4.8
1989-08-27T00:28:57.300 ,5,0,0.,4.8,0.,4.8,0.,4.8,0.,4.8
1989-08-27T00:29:02.100 ,5,0,0.,4.8,0.,4.8,0.,4.8,0.,4.8
1989-08-27T00:29:06.900 ,5,0,0.,4.8,0.,4.8,0.,4.8,0.,4.8
1989-08-27T00:29:11.700 ,5,0,0.,4.8,0.,4.8,0.,4.8,0.,4.8
1989-08-27T00:29:16.500 ,5,0,0.,4.8,0.,4.8,0.,4.8,0.,4.8
1989-08-27T00:29:21.300 ,5,0,0.,4.8,0.,4.8,0.,4.8,0.,4.8
1989-08-27T00:29:26.100 ,5,0,0.,4.8,0.,4.8,0.,4.8,0.,4.8
1989-08-27T00:29:30.900 ,5,0,0.,4.8,0.,4.8,0.,4.8,0.,4.8
1989-08-27T00:29:35.700 ,6,0,0.,4.8,0.,4.8,0.,4.8,0.,4.8
1989-08-27T00:29:40.500 ,6,0,0.,4.8,0.,4.8,0.,4.8,0.,4.8
1989-08-27T00:29:45.300 ,6,0,0.,4.8,0.,4.8,0.,4.8,0.,4.8
1989-08-27T00:29:50.100 ,6,0,0.,4.8,0.,4.8,0.,4.8,0.,4.8
1989-08-27T00:29:54.900 ,6,0,0.,4.8,0.,4.8,0.,4.8,0.,4.8
1989-08-27T00:29:59.700 ,6,0,0.,4.8,0.,4.8,0.,4.8,0.,4.8
1989-08-27T00:30:04.500 ,6,0,0.,4.8,0.,4.8,0.,4.8,0.,4.8
1989-08-27T00:30:09.300 ,6,0,0.,4.8,0.,4.8,0.,4.8,0.,4.8
1989-08-27T00:30:14.100 ,6,0,0.,4.8,0.,4.8,0.,4.8,0.,4.8
1989-08-27T00:30:18.900 ,6,0,0.,4.8,0.,4.8,0.,4.8,0.,4.8
1989-08-27T00:30:23.700 ,7,0,0.,4.8,0.,4.8,0.,4.8,0.,4.8
1989-08-27T00:30:28.500 ,7,0,0.,4.8,0.,4.8,0.,4.8,0.,4.8
1989-08-27T00:30:33.300 ,7,0,0.,4.8,0.,4.8,0.,4.8,0.,4.8
1989-08-27T00:30:38.100 ,7,0,0.,4.8,0.,4.8,0.,4.8,0.,4.8
1989-08-27T00:30:42.900 ,7,0,0.,4.8,0.,4.8,0.,4.8,0.,4.8
1989-08-27T00:30:47.700 ,7,0,0.,4.8,0.,4.8,0.,4.8,0.,4.8
1989-08-27T00:30:52.500 ,7,0,0.,4.8,0.,4.8,0.,4.8,0.,4.8
1989-08-27T00:30:57.300 ,7,0,0.,4.8,0.,4.8,0.,4.8,0.,4.8
1989-08-27T00:31:02.100 ,7,0,0.,4.8,0.,4.8,0.,4.8,0.,4.8
1989-08-27T00:31:06.900 ,7,0,0.,4.8,0.,4.8,0.,4.8,0.,4.8
1989-08-27T00:31:11.700 ,7,0,0.,4.8,0.,4.8,0.,4.8,0.,4.8
1989-08-27T00:31:16.500 ,7,0,0.,4.8,0.,4.8,0.,4.8,0.,4.8
1989-08-27T00:31:21.300 ,7,0,0.,4.8,0.,4.8,0.,4.8,0.,4.8
1989-08-27T00:31:26.100 ,7,0,0.,4.8,0.,4.8,0.,4.8,0.,4.8
1989-08-27T00:31:30.900 ,7,0,0.,4.8,0.,4.8,0.,4.8,0.,4.8
1989-08-27T00:31:35.700 ,7,0,0.,4.8,0.,4.8,0.,4.8,0.,4.8
1989-08-27T00:31:40.500 ,7,0,0.,4.8,0.,4.8,0.,4.8,0.,4.8
1989-08-27T00:31:45.300 ,7,0,0.,4.8,0.,4.8,0.,4.8,0.,4.8
1989-08-27T00:31:50.100 ,7,0,0.,4.8,0.,4.8,0.,4.8,0.,4.8
1989-08-27T00:31:54.900 ,7,0,0.,4.8,0.,4.8,0.,4.8,0.,4.8
1989-08-27T00:31:59.700 ,6,0,0.,4.8,0.,4.8,0.,4.8,0.,4.8
1989-08-27T00:32:04.500 ,6,0,0.,4.8,0.,4.8,0.,4.8,0.,4.8
1989-08-27T00:32:09.300 ,6,0,0.,4.8,0.,4.8,0.,4.8,0.,4.8
1989-08-27T00:32:14.100 ,6,0,0.,4.8,0.,4.8,0.,4.8,0.,4.8
1989-08-27T00:32:18.900 ,6,0,0.,4.8,0.,4.8,0.,4.8,0.,4.8
1989-08-27T00:32:23.700 ,6,0,0.,4.8,0.,4.8,0.,4.8,0.,4.8
1989-08-27T00:32:28.500 ,6,0,0.,4.8,0.,4.8,0.,4.8,0.,4.8
1989-08-27T00:32:33.300 ,6,0,0.,4.8,0.,4.8,0.,4.8,0.,4.8
1989-08-27T00:32:38.100 ,6,0,0.,4.8,0.,4.8,0.,4.8,0.,4.8
1989-08-27T00:32:42.900 ,6,0,0.,4.8,0.,4.8,0.,4.8,0.,4.8
1989-08-27T00:32:47.700 ,5,0,0.,4.8,0.,4.8,0.,4.8,0.,4.8
1989-08-27T00:32:52.500 ,5,0,0.,4.8,0.,4.8,0.,4.8,0.,4.8
1989-08-27T00:32:57.300 ,5,0,0.,4.8,0.,4.8,0.,4.8,0.,4.8
1989-08-27T00:33:02.100 ,5,0,0.,4.8,0.,4.8,0.,4.8,0.,4.8
1989-08-27T00:33:06.900 ,5,0,0.,4.8,0.,4.8,0.,4.8,0.,4.8
1989-08-27T00:33:11.700 ,5,0,0.,4.8,0.,4.8,0.,4.8,0.,4.8
1989-08-27T00:33:16.500 ,5,0,0.,4.8,0.,4.8,0.,4.8,0.,4.8